Location: Ponte Samoggia
(44.5667°N, 11.1333°E)
Time: 22:49:41
(UTC+00:00)

Cosmos 1328 - Pass Details

Date: 26 May 2022
Orbit: 524 x 551 km, 82.5° (Epoch: 29 June)

Event Time Altitude Azimuth Distance (km) Brightness Sun altitude
Exits shadow 02:53:05 - 213° (SSW) 1,931 6.0 -7.3°
Reaches altitude 10° 02:53:27 10° 215° (SW) 1,789 5.8 -7.3°
Maximum altitude 02:57:07 37° 284° (WNW) 850 4.5 -6.7°
Drops below altitude 10° 03:00:51 10° 353° (N) 1,819 6.9 -6.2°
Sets 03:03:10 0° 2° (N) 2,721 8.0 -5.9°
